Hourly Data Report for October 01, 2017

All times are specified in Local Standard Time (LST). Add 1 hour to adjust for Daylight Saving Time where and when it is observed.

BELLA COOLA AIRPORT
BRITISH COLUMBIA

52°23'19.000" N
126°35'13.000" W
36.90 m
1060844
71533
VBD

Download Data

Hourly Data (October 2017)
Hourly Data Report for October 1, 2017
Temp Definition
°C
Dew Point Temp Definition
°C
Rel Hum Definition
%
Wind Dir Definition
10's deg

Wind Spd Definition
km/h
Visibility Definition
km
Stn Press Definition
kPa
Hmdx Definition


Wind Chill Definition


Weather Definition


TIME
00:00 8.8 8.1 95 7 2   101.59     LegendNANA
01:00 8.8 8.1 96 7 3   101.63     LegendNANA
02:00 8.4 7.8 96 10 1   101.66     LegendNANA
03:00 7.8 7.3 96 4 2   101.69     LegendNANA
04:00 8.0 7.5 97 5 2   101.72     LegendNANA
05:00 7.8 7.4 97 1 1   101.78     LegendNANA
06:00 7.4 7.0 97 25 2   101.84     LegendNANA
07:00 7.9 7.5 97   0   101.94     LegendNANA
08:00 8.7 8.2 97 5 2   101.97     LegendNANA
09:00 9.4 8.8 96 5 3   102.01     LegendNANA
10:00 11.9 8.6 80 8 2   101.99     LegendNANA
11:00 13.7 6.9 63 18 2   101.94     LegendNANA
12:00 14.6 6.6 58 24 4   101.90     LegendNANA
13:00 15.0 6.5 57 24 15   101.87     LegendNANA
14:00 15.5 6.1 53 24 14   101.82     LegendNANA
15:00 15.9 7.0 55 25 17   101.81     LegendNANA
16:00 15.8 6.0 52 24 10   101.80     LegendNANA
17:00 14.1 6.0 58 23 6   101.83     LegendNANA
18:00 12.0 7.4 74 0 1   101.92     LegendNANA
19:00 10.3 8.3 88 9 2   102.02     LegendNANA
20:00 8.8 7.7 93 15 3   102.06     LegendNANA
21:00 7.1 6.3 95   0   102.10     LegendNANA
22:00 6.7 6.1 96 8 4   102.12     LegendNANA
23:00 6.2 5.6 96 29 1   102.13     LegendNANA

Notes on Data Quality.

Legend

  • E = Estimated
  • M = Missing
  • NA = Not Available
  • ‡ = Partner data that is not subject to review by the National Climate Archives
Date modified: